Banff, Alberta

10:13 PM MDT on August 18, 2017 (GMT -0600)
Banff

Weather History for CWZG - August, 2013

Change the Weather History Date:

Thursday, August 29, 2013

  Actual Average Record
Temperature  
Mean Temperature 62 °F -  
Max Temperature 76 °F - - ()
Min Temperature 48 °F - - ()
Degree Days  
Heating Degree Days 3    
Growing Degree Days 12 (Base 50)    
Moisture  
Dew Point 50 °F    
Average Humidity 72    
Maximum Humidity 98    
Minimum Humidity 30    
Precipitation  
Precipitation 0.08 in - - ()
Sea Level Pressure  
Sea Level Pressure 29.96 in    
Wind  
Wind Speed 3 mph ()    
Max Wind Speed 16 mph    
Max Gust Speed 31 mph    
T = Trace of Precipitation, MM = Missing Value Source: Averaged Metar Reports

Daily Weather History Graph

Daily Weather History Graph

Search for Another Location

Airport or City:

Trip Planner

Search our weather history database for the weather conditions in past years. The results will help you decide how hot, cold, wet, or windy it might be!

Date:

Astronomy

Aug. 29, 2013 Rise Set
Actual Time 6:51 AM MDT 8:33 PM MDT
Civil Twilight 6:16 AM MDT 9:08 PM MDT
Nautical Twilight 5:33 AM MDT 9:51 PM MDT
Astronomical Twilight 4:44 AM MDT 10:38 PM MDT
Moon 12:25 AM MDT (8/29) 4:27 PM MDT (8/29)
Length of Visible Light 14h 52m
Length of Day
13h 42m
Last Quarter, 37% of the Moon is Illuminated
Aug 29
Last Quarter
Sep 5
New
Sep 12
First Quarter
Sep 19
Full
Sep 26
Last Quarter

Hourly Weather History & Observations

Time (MDT) Temp. Dew Point Humidity Pressure Visibility Wind Dir Wind Speed Gust Speed Precip Events Conditions
12:00 AM 60.4 °F 51.1 °F 71% 29.95 in - WNW 8.1 mph 19.6 mph N/A   Unknown
1:00 AM 56.8 °F 52.2 °F 84% 29.99 in - SW 6.9 mph - N/A   Unknown
2:00 AM 54.7 °F 53.1 °F 94% 29.99 in - West 1.2 mph - 0.04 in   Unknown
3:00 AM 52.9 °F 52.2 °F 97% 30.00 in - South 3.5 mph - N/A   Unknown
4:00 AM 54.0 °F 52.0 °F 93% 29.99 in - West 2.3 mph - N/A   Unknown
5:00 AM 51.6 °F 50.4 °F 95% 30.01 in - SSW 2.3 mph - N/A   Unknown
6:00 AM 49.3 °F 48.6 °F 97% 30.01 in - West 1.2 mph - N/A   Unknown
7:00 AM 49.1 °F 48.6 °F 98% 30.04 in - WNW 1.2 mph - N/A   Unknown
8:00 AM 48.6 °F 48.0 °F 98% 30.06 in - NW 1.2 mph - N/A   Unknown
9:00 AM 49.8 °F 48.2 °F 94% 30.08 in - WSW 2.3 mph - N/A   Unknown
10:00 AM 55.8 °F 48.9 °F 78% 30.04 in - SW 2.3 mph - N/A   Unknown
11:00 AM 62.1 °F 51.3 °F 68% 30.01 in - WSW 2.3 mph - N/A   Unknown
12:00 PM 65.7 °F 50.5 °F 58% 29.98 in - WSW 1.2 mph - N/A   Unknown
1:00 PM 69.4 °F 49.3 °F 49% 29.95 in - ENE 1.2 mph - N/A   Unknown
2:00 PM 73.8 °F 44.6 °F 35% 29.92 in - ESE 3.5 mph - N/A   Unknown
3:00 PM 75.4 °F 42.3 °F 30% 29.89 in - NNE 3.5 mph - N/A   Unknown
4:00 PM 76.5 °F 44.8 °F 32% 29.86 in - SW 2.3 mph - N/A   Unknown
5:00 PM 74.3 °F 48.6 °F 40% 29.86 in - East 2.3 mph - N/A   Unknown
6:00 PM 64.9 °F 54.5 °F 69% 29.89 in - NNE 2.3 mph - 0.03 in   Unknown
7:00 PM 63.9 °F 55.4 °F 74% 29.89 in - NE 1.2 mph - N/A   Unknown
8:00 PM 62.2 °F 55.2 °F 78% 29.87 in - North 1.2 mph - N/A   Unknown
9:00 PM 68.9 °F 42.1 °F 38% 29.85 in - SSW 16.1 mph 31.1 mph N/A   Unknown
10:00 PM 57.7 °F 49.5 °F 74% 29.95 in - WSW 4.6 mph - 0.01 in   Unknown
11:00 PM 56.7 °F 50.2 °F 79% 29.93 in - SW 8.1 mph - N/A   Unknown